Flag for Germany Weather past 2 weeks in Gladbeck, North Rhine-Westphalia, Germany

Now
39 °F

Partly sunny.


Feels Like: 34 °F
Forecast: 32 / 37 °F
Wind: 8 mph from Southwest

Location: Duesseldorf

Current Time: Jan 29, 2015 at 5:22:49 PM

Latest Report: Jan 29, 2015 at 5:00 PM


Visibility: 16 mi

Pressure: 28.94 "Hg

Humidity: 79%

Dew point: 33 °F

Location of GladbeckLocation

Historic Weather in Gladbeck — Graph

°F

Gladbeck temperature yesterday

Maximum temperature yesterday: 44 °F (at 1:00 PM)
Minimum temperature yesterday: 35 °F (at 12:00 AM)
Average temperature yesterday: 40 °F

Past Weeks' High & Low Weather Summary

 TemperatureHumidityPressure
High51 °F (Jan 15, 6:00 PM)100% (Jan 17, 8:00 AM)30.44 "Hg (Jan 17, 8:00 AM)
Low25 °F (Jan 25, 2:00 AM)58% (Jan 21, 1:00 PM)29.03 "Hg (Jan 29, 3:00 PM)
Average36 °F84%29.96 "Hg
* Reported Jan 14 3:00 PM — Jan 29 3:00 PM, Gladbeck, Weather by CustomWeather, © 2014

Note: Actual official high and low records may vary slightly from our data, if they occured in-between our weather recording intervals... More about our weather records

Advertising

Gladbeck weather history for previous 24 hours

 ConditionsComfort  
Time TempWeatherWind HumidityBarometerVisibility
3:00 PM
Jan 29
39 °FScattered clouds.7 mph85%29.03 "Hg11 mi
2:00 PM39 °FSleet. Low clouds.12 mph80%29.09 "Hg5 mi
1:00 PM40 °FSprinkles. Partly sunny.10 mph73%29.12 "Hg25 mi
12:00 PM40 °FPartly sunny.9 mph76%29.18 "Hg25 mi
11:00 AM38 °FPartly sunny.9 mph79%29.21 "Hg25 mi
10:00 AM38 °FPartly sunny.9 mph78%29.23 "Hg22 mi
9:00 AM36 °FPartly sunny.8 mph80%29.26 "Hg25 mi
8:00 AM36 °FPassing clouds.8 mph79%29.29 "Hg22 mi
7:00 AM36 °FPassing clouds.9 mph78%29.32 "Hg25 mi
6:00 AM35 °FPassing clouds.9 mph78%29.32 "Hg25 mi
5:00 AM35 °FOvercast.8 mph78%29.38 "Hg25 mi
4:00 AM34 °FPassing clouds.8 mph78%29.41 "Hg25 mi
3:00 AM35 °FClear.8 mph78%29.41 "Hg25 mi
2:00 AM35 °FClear.8 mph83%29.44 "Hg25 mi
1:00 AM36 °FPassing clouds.8 mph78%29.47 "Hg25 mi
12:00 AM36 °FPassing clouds.8 mph81%29.47 "Hg25 mi
11:00 PM
Jan 28
38 °FOvercast.12 mph75%29.47 "Hg22 mi
10:00 PM38 °FPassing clouds.8 mph82%29.47 "Hg25 mi
9:00 PM38 °FPassing clouds.7 mph83%29.47 "Hg25 mi
8:00 PM37 °FOvercast.6 mph91%29.47 "Hg25 mi
6:00 PM44 °FLight rain. Overcast.10 mph87%29.38 "Hg12 mi
5:00 PM43 °FRain. Overcast.13 mph86%29.44 "Hg6 mi
Weather by CustomWeather, © 2014

See weather overviewHow to use our weather pages